Home   Weather   Ternitz   Past weeks

Flag for Austria Past Weather in Ternitz, Lower Austria, Austria — Yesterday and Last 2 Weeks

Now
60 °F

Clear.


Feels Like: 60 °F
Forecast: 50 / 72 °F
Wind: 5 mph from North

Location: Eisenstadt

Current Time: Oct 1, 2016 at 12:03:09 AM

Latest Report: Sep 30, 2016 at 11:00 PM


Visibility: 6 mi

Pressure: 29.98 "Hg

Humidity: 80%

Dew Point: 54 °F

Location of TernitzLocation

Past Weather in Ternitz — Graph

°F

Ternitz Temperature Yesterday

Maximum temperature yesterday: 77 °F (at 4:00 PM)
Minimum temperature yesterday: 53 °F (at 6:00 AM)
Average temperature yesterday: 64 °F

High & Low Weather Summary for the Past Weeks

 TemperatureHumidityPressure
High81 °F (Sep 16, 4:00 PM)95% (Sep 18, 7:00 AM)30.38 "Hg (Sep 18, 7:00 AM)
Low44 °F (Sep 23, 7:00 AM)29% (Sep 29, 5:00 PM)29.75 "Hg (Sep 17, 5:00 AM)
Average61 °F70%30.08 "Hg
* Reported Sep 15 10:00 PM — Sep 30 10:00 PM, Ternitz, Weather by CustomWeather, © 2016

Note: Actual official high and low records may vary slightly from our data, if they occured in-between our weather recording intervals... More about our weather records

Advertising

Ternitz Weather History for the Previous 24 Hours

Scroll right to see more
 ConditionsComfort  
Time TempWeatherWind HumidityBarometerVisibility
10:00 PM
Fri, Sep 30
61 °FCool.3 mph78%29.98 "HgN/A
9:00 PM61 °FCool.3 mph77%29.98 "HgN/A
8:00 PM63 °FPassing clouds.3 mph73%29.98 "Hg6 mi
7:00 PM66 °FPassing clouds.3 mph67%29.97 "Hg7 mi
6:00 PM73 °FMild.1 mph50%29.96 "HgN/A
5:00 PM77 °FScattered clouds.3 mph42%29.96 "Hg12 mi
4:00 PM77 °FWarm.3 mph41%29.98 "HgN/A
3:00 PM77 °FWarm.3 mph41%29.99 "HgN/A
2:00 PM76 °FSunny.2 mph45%30.02 "Hg12 mi
1:00 PM75 °FMild.3 mph49%30.03 "HgN/A
12:00 PM72 °FMild.2 mph52%30.05 "HgN/A
11:00 AM69 °FSunny.1 mph58%30.06 "Hg12 mi
10:00 AM64 °FMild.1 mph66%30.07 "HgN/A
9:00 AM60 °FCool.No wind76%30.06 "HgN/A
8:00 AM54 °FScattered clouds.3 mph88%30.06 "Hg12 mi
7:00 AM53 °FCool.5 mph91%30.05 "HgN/A
6:00 AM53 °FClear.2 mph90%30.05 "Hg9 mi
5:00 AM53 °FClear.3 mph88%30.06 "Hg9 mi
3:00 AM55 °FCool.2 mph85%30.06 "HgN/A
2:00 AM56 °FClear.1 mph83%30.06 "Hg9 mi
1:00 AM58 °FCool.5 mph82%30.06 "HgN/A
Weather by CustomWeather, © 2016

See weather overviewHow to use our weather pages